Location: Oregon Star Party
(44.2935°N, 120.1332°W)
Time: 18:23:51
(UTC-07:00)

Amateur Radio Satellites - All Passes

Search period start: 03 August 2015 17:53
Search period end: 04 August 2015 17:53
Location: Oregon Star Party, 44.2935°N, 120.1332°W

Satellite Date Start Highest point End Downlink Frequencies (MHz)
Time Altitude Azimuth
CUTE-I 03 Aug 17:59:41 18:04:51 53° 71° (ENE) 18:10:05 437.470
VERMONT LUNAR 03 Aug 18:26:49 18:29:40 30° 167° (SSE) 18:32:32 437.305
HO-68 03 Aug 18:27:43 18:30:40 13° 48° (NE) 18:33:57 435.675
SO-50 03 Aug 18:39:22 18:43:48 33° 245° (WSW) 18:48:06 436.795
BRITE-PL 03 Aug 18:41:13 18:43:29 15° 65° (ENE) 18:45:54 437.365/2234.400
PCSat 03 Aug 18:44:24 18:49:32 43° 247° (WSW) 18:54:36 145.827
Cubesat XI-IV 03 Aug 18:44:28 18:49:48 65° 258° (WSW) 18:55:10 437.490
MOZHAYETS 4 03 Aug 18:54:44 18:58:01 19° 296° (WNW) 19:01:09
Cosmos 2499 03 Aug 19:10:29 19:19:19 88° 262° (W) 19:28:13 435.465 / 435.565
PRISM 03 Aug 19:10:33 19:12:41 14° 90° (E) 19:14:58 437.425
CUBESAT XI-V 03 Aug 19:18:35 19:23:13 83° 103° (ESE) 19:27:49 437.345
CANX-2 03 Aug 19:18:46 19:20:21 12° 62° (ENE) 19:22:08 2200.000
STRAND 1 03 Aug 19:20:31 19:24:45 26° 93° (E) 19:29:03 437.568
PHONESAT 2.4 03 Aug 19:28:00 19:30:43 21° 158° (SSE) 19:33:27 2401.200-2431.200
GONETS M04 03 Aug 19:31:26 19:37:21 20° 281° (WNW) 19:42:52
CUTE-I 03 Aug 19:41:09 19:45:18 22° 269° (W) 19:49:20 437.470
DOVE 4 03 Aug 19:48:07 19:51:29 25° 68° (ENE) 19:54:57 437.250
VERMONT LUNAR 03 Aug 20:03:03 20:06:04 41° 184° (S) 20:09:05 437.305
HO-68 03 Aug 20:10:08 20:17:05 59° 68° (ENE) 20:24:07 435.675
GOMX 1 03 Aug 20:13:08 20:17:19 77° 76° (ENE) 20:21:29 467.674
COMPASS 1 03 Aug 20:15:44 20:19:14 26° 68° (ENE) 20:22:48 437.405
BRITE-PL 03 Aug 20:17:29 20:21:43 54° 260° (W) 20:25:49 437.365/2234.400
ISS 03 Aug 20:29:44 20:32:49 42° 142° (SE) 20:35:56 145.825
ZACube-1 03 Aug 20:33:51 20:34:45 11° 60° (ENE) 20:35:53 437.345
SEEDS 03 Aug 20:35:00 20:39:07 52° 73° (ENE) 20:43:18 437.485
CUTE 1.7 + AOD 2 03 Aug 20:42:34 20:46:50 78° 77° (ENE) 20:51:10 437.475
PRISM 03 Aug 20:44:29 20:48:30 51° 288° (WNW) 20:52:27 437.425
CANX-2 03 Aug 20:51:26 20:55:43 76° 259° (W) 21:00:03 2200.000
FUNcube-1 03 Aug 20:52:18 20:54:53 16° 64° (ENE) 20:57:38 145.935
AAUSAT CUBESAT 2 03 Aug 20:53:48 20:57:54 56° 74° (ENE) 21:02:04 437.432
CUBESAT XI-V 03 Aug 20:58:04 21:00:04 12° 299° (WNW) 21:01:51 437.345
Oscar 11 03 Aug 20:58:34 21:02:20 30° 69° (ENE) 21:06:10 145.826/435.025
STRAND 1 03 Aug 20:59:20 21:04:07 40° 292° (WNW) 21:08:50 437.568
UWE-3 03 Aug 21:01:35 21:05:04 26° 67° (ENE) 21:08:42 435.000/436.395/437.385
PHONESAT 2.4 03 Aug 21:04:55 21:08:15 42° 174° (S) 21:11:36 2401.200-2431.200
Cosmos 2499 03 Aug 21:05:24 21:11:27 20° 281° (W) 21:17:06 435.465 / 435.565
RS-15 03 Aug 21:05:55 21:16:18 55° 114° (ESE) 21:27:09 29.354- 29.394
CINEMA 3 03 Aug 21:12:02 21:16:11 88° 80° (E) 21:20:30 145.822/145.860
CUBEBUG 2 03 Aug 21:22:46 21:26:51 53° 73° (ENE) 21:31:06 437.445
DOVE 4 03 Aug 21:25:35 21:29:13 28° 265° (W) 21:32:50 437.250
M-CUBED/EXP-1 PRIME 03 Aug 21:31:02 21:31:36 10° 89° (E) 21:32:29 437.505
DX 1 03 Aug 21:34:38 21:37:02 15° 63° (ENE) 21:39:35 434.975-435.025
VERMONT LUNAR 03 Aug 21:39:51 21:42:24 22° 200° (SSW) 21:44:56 437.305
Cosmos 2491 03 Aug 21:40:07 21:45:42 19° 56° (ENE) 21:51:40 435.465 / 435.565
COMPASS 1 03 Aug 21:51:05 21:54:49 29° 265° (W) 21:58:32 437.405
DELFI C3 03 Aug 21:53:48 21:57:51 79° 76° (ENE) 22:01:58 145.870
AUBIESAT-1 03 Aug 21:55:28 21:58:20 16° 94° (E) 22:01:20 437.475
HO-68 03 Aug 21:59:13 22:05:18 29° 267° (W) 22:11:15 435.675
VELOX 1 03 Aug 22:00:11 22:02:53 17° 63° (ENE) 22:05:42 145.980
ZACube-1 03 Aug 22:06:14 22:10:28 85° 254° (WSW) 22:14:49 437.345
ISS 03 Aug 22:06:15 22:09:18 35° 340° (NNW) 22:12:22 145.825
SEEDS 03 Aug 22:12:43 22:15:16 15° 271° (W) 22:17:41 437.485
ESTCUBE 1 03 Aug 22:23:23 22:26:39 21° 65° (ENE) 22:30:03 437.505/2401.250
BEESAT 3 03 Aug 22:25:42 22:28:41 20° 114° (ESE) 22:31:46 437.485
FUNcube-1 03 Aug 22:26:41 22:30:49 52° 261° (W) 22:35:03 145.935
HUMSAT D 03 Aug 22:27:46 22:31:54 69° 74° (ENE) 22:36:07 437.325/437.525
AAUSAT CUBESAT 2 03 Aug 22:31:40 22:33:55 14° 272° (W) 22:36:00 437.432
Oscar 11 03 Aug 22:34:47 22:38:30 27° 266° (W) 22:42:13 145.826/435.025
TIGRISAT 03 Aug 22:35:20 22:38:25 18° 90° (E) 22:41:40 435.000
UKube-1 03 Aug 22:35:39 22:39:51 55° 72° (ENE) 22:44:06 .
UWE-3 03 Aug 22:37:46 22:41:31 30° 265° (W) 22:45:20 435.000/436.395/437.385
ANTELSAT 03 Aug 22:38:17 22:41:39 20° 91° (E) 22:45:08 437.575/2403.000
PHONESAT 2.4 03 Aug 22:42:39 22:45:56 37° 191° (S) 22:49:12 2401.200-2431.200
AIST 1 03 Aug 22:52:20 22:56:30 49° 77° (ENE) 23:00:39
AISAT 03 Aug 22:56:37 23:00:57 61° 73° (ENE) 23:05:18 437.250
CUBEBUG 1 03 Aug 23:01:21 23:05:21 38° 70° (ENE) 23:09:24 437.445
CUBEBUG 2 03 Aug 23:01:36 23:04:00 14° 272° (W) 23:06:17 437.445
50 SAT 03 Aug 23:01:47 23:05:41 78° 76° (ENE) 23:09:39 437.505
M-CUBED/EXP-1 PRIME 03 Aug 23:02:19 23:07:10 86° 105° (ESE) 23:11:50 437.505
POPSAT HIP 1 03 Aug 23:05:52 23:07:45 13° 88° (E) 23:09:50 437.405
DX 1 03 Aug 23:08:34 23:12:51 60° 259° (W) 23:17:09 434.975-435.025
QB50P2 03 Aug 23:13:43 23:16:23 16° 90° (E) 23:19:12 145.880/145.840
RS-15 03 Aug 23:18:13 23:28:55 52° 319° (NW) 23:40:02 29.354- 29.394
SPROUT 03 Aug 23:26:03 23:29:17 22° 66° (ENE) 23:32:37 437.525
TISAT 1 03 Aug 23:26:39 23:28:46 14° 63° (ENE) 23:31:05 437.305
BEESAT 2 03 Aug 23:26:54 23:30:58 67° 122° (ESE) 23:35:05 435.950
AUBIESAT-1 03 Aug 23:28:46 23:33:29 62° 293° (WNW) 23:38:01 437.475
UNISAT 6 03 Aug 23:28:48 23:33:29 62° 100° (E) 23:38:10 437.425
DUCHIFAT 1 03 Aug 23:34:03 23:37:32 25° 94° (E) 23:41:05 145.980
VELOX 1 03 Aug 23:34:43 23:39:03 55° 260° (W) 23:43:24 145.980
Cosmos 2491 03 Aug 23:35:30 23:44:16 82° 81° (E) 23:53:00 435.465 / 435.565
NANOSAT C BR1 03 Aug 23:39:32 23:43:14 29° 95° (E) 23:47:00 145.865
QB50P1 03 Aug 23:39:36 23:43:20 30° 95° (E) 23:47:07 145.935-145.965
AIST 2 03 Aug 23:43:41 23:47:03 24° 114° (ESE) 23:50:32 435.215
ISS 03 Aug 23:43:44 23:46:22 22° 0° (N) 23:48:58 145.825
YUBILEINY 03 Aug 23:57:28 00:05:36 48° 89° (E) 00:13:54 435.215
ESTCUBE 1 03 Aug 23:58:53 00:03:15 45° 262° (W) 00:07:37 437.505/2401.250
BEESAT 3 04 Aug 00:02:27 00:06:21 43° 310° (NW) 00:10:18 437.485
HUMSAT D 04 Aug 00:06:54 00:08:12 11° 274° (W) 00:09:17 437.325/437.525
TIGRISAT 04 Aug 00:10:55 00:15:31 53° 287° (WNW) 00:20:06 435.000
UKube-1 04 Aug 00:13:52 00:16:23 15° 270° (W) 00:18:44 .
ANTELSAT 04 Aug 00:14:09 00:18:42 48° 289° (WNW) 00:23:14 437.575/2403.000
SWISSCUBE 04 Aug 00:16:06 00:17:29 11° 58° (ENE) 00:19:06 437.505
PHONESAT 2.4 04 Aug 00:21:12 00:23:22 15° 207° (SSW) 00:25:29 2401.200-2431.200
POLYITAN 1 04 Aug 00:24:02 00:28:20 88° 285° (WNW) 00:32:39 437.675
O/OREOS (USA 219) 04 Aug 00:25:13 00:28:10 18° 102° (ESE) 00:31:17 437.305
BUGSAT 1 04 Aug 00:27:03 00:31:06 60° 101° (E) 00:35:10 437.445
AIST 1 04 Aug 00:31:21 00:33:45 14° 274° (W) 00:36:00
AISAT 04 Aug 00:35:41 00:38:00 14° 271° (W) 00:40:07 437.250
ITUPSAT 1 04 Aug 00:37:00 00:39:52 16° 62° (ENE) 00:42:54 437.325
CUBEBUG 1 04 Aug 00:38:31 00:41:53 21° 268° (W) 00:45:08 437.445
M-CUBED/EXP-1 PRIME 04 Aug 00:38:37 00:41:18 15° 305° (NW) 00:43:48 437.505
POPSAT HIP 1 04 Aug 00:39:51 00:44:05 61° 286° (WNW) 00:48:18 437.405
QB50P2 04 Aug 00:48:27 00:52:35 47° 288° (WNW) 00:56:42 145.880/145.840
TISAT 1 04 Aug 00:59:59 01:04:07 59° 259° (W) 01:08:16 437.305
SPROUT 04 Aug 01:01:12 01:05:10 37° 263° (W) 01:09:09 437.525
Cosmos 2504 04 Aug 01:05:16 01:07:55 13° 75° (ENE) 01:11:08 435.465 / 435.565
BEESAT 2 04 Aug 01:06:33 01:09:28 18° 322° (NW) 01:12:19 435.950
UNISAT 6 04 Aug 01:06:45 01:09:50 17° 297° (WNW) 01:12:45 437.425
DUCHIFAT 1 04 Aug 01:09:35 01:13:22 31° 291° (WNW) 01:17:06 145.980
NANOSAT C BR1 04 Aug 01:15:23 01:19:01 27° 292° (WNW) 01:22:34 145.865
QB50P1 04 Aug 01:15:31 01:19:08 26° 292° (WNW) 01:22:40 145.935-145.965
Oscar 19 04 Aug 01:17:00 01:19:48 15° 88° (E) 01:22:50 437.125/150
ISS 04 Aug 01:20:21 01:23:24 36° 20° (NNE) 01:26:28 145.825
AIST 2 04 Aug 01:21:24 01:25:26 40° 311° (NW) 01:29:30 435.215
BEESAT 04 Aug 01:29:00 01:33:35 48° 71° (ENE) 01:38:14 436.000
Cosmos 2491 04 Aug 01:33:53 01:40:13 22° 280° (W) 01:46:11 435.465 / 435.565
RS-15 04 Aug 01:35:32 01:44:47 28° 351° (N) 01:54:19 29.354- 29.394
SWISSCUBE 04 Aug 01:49:50 01:54:38 83° 74° (ENE) 01:59:29 437.505
YUBILEINY 04 Aug 01:54:29 02:02:38 41° 290° (WNW) 02:10:45 435.215
O/OREOS (USA 219) 04 Aug 02:02:54 02:07:15 48° 299° (WNW) 02:11:39 437.305
POLYITAN 1 04 Aug 02:03:15 02:03:37 10° 300° (WNW) 02:03:45 437.675
BUGSAT 1 04 Aug 02:04:01 02:06:09 14° 297° (WNW) 02:08:07 437.445
ITUPSAT 1 04 Aug 02:12:29 02:17:16 67° 257° (WSW) 02:22:05 437.325
STARS 04 Aug 02:31:31 02:34:50 22° 66° (ENE) 02:38:16 437.465
Gurwin Techsat 1B 04 Aug 02:40:56 02:45:25 28° 93° (E) 02:49:59 435.225
ITAMSAT 1 04 Aug 02:44:12 02:48:25 25° 93° (E) 02:52:43 435.822/435.867
Cosmos 2504 04 Aug 02:51:33 02:58:42 73° 95° (E) 03:06:28 435.465 / 435.565
Oscar 19 04 Aug 02:54:37 02:59:48 73° 285° (WNW) 03:04:58 437.125/150
ISS 04 Aug 02:56:46 02:59:53 42° 218° (SW) 03:02:58 145.825
KKS-1 04 Aug 03:05:23 03:09:47 79° 75° (ENE) 03:14:14 437.445
BEESAT 04 Aug 03:08:09 03:11:44 20° 269° (W) 03:15:12 436.000
SWISSCUBE 04 Aug 03:31:30 03:33:13 11° 274° (W) 03:34:39 437.505
JAS-2 04 Aug 03:46:11 03:53:46 50° 96° (E) 04:01:12 435.910
RS-15 04 Aug 03:51:34 04:01:43 34° 25° (NNE) 04:12:25 29.354- 29.394
AO-7 04 Aug 03:52:30 03:58:54 25° 91° (E) 04:05:32 29.400- 29.500
HORYU 2 04 Aug 04:02:34 04:05:45 19° 91° (E) 04:09:03 437.375
STARS 04 Aug 04:06:59 04:11:05 38° 262° (W) 04:15:11 437.465
MOZHAYETS 4 04 Aug 04:19:48 04:24:21 58° 73° (ENE) 04:28:57
Gurwin Techsat 1B 04 Aug 04:20:34 04:25:33 41° 292° (WNW) 04:30:29 435.225
ITAMSAT 1 04 Aug 04:23:13 04:28:07 43° 291° (WNW) 04:32:58 435.822/435.867
Oscar 19 04 Aug 04:36:47 04:38:21 11° 303° (WNW) 04:39:39 437.125/150
GONETS M04 04 Aug 04:42:17 04:48:04 21° 80° (E) 04:54:15
KKS-1 04 Aug 04:46:02 04:47:05 11° 274° (W) 04:47:51 437.445
Cosmos 2504 04 Aug 04:46:08 04:51:56 23° 299° (WNW) 04:57:47 435.465 / 435.565
CUSAT 1 04 Aug 04:46:33 04:49:03 35° 284° (WNW) 04:51:29 437.405
CUBESAT XI-V 04 Aug 04:49:21 04:51:05 12° 60° (ENE) 04:53:00 437.345
DANDE 04 Aug 04:50:17 04:53:14 65° 282° (WNW) 04:55:50 436.750
JAS-2 04 Aug 05:31:25 05:38:39 41° 295° (WNW) 05:45:41 435.910
HORYU 2 04 Aug 05:38:19 05:42:39 45° 289° (WNW) 05:46:56 437.375
AO-7 04 Aug 05:44:16 05:52:37 77° 292° (WNW) 06:00:53 29.400- 29.500
MOZHAYETS 4 04 Aug 05:59:06 06:02:01 16° 271° (W) 06:04:45
Cosmos 2499 04 Aug 06:01:25 06:04:23 13° 75° (ENE) 06:07:58 435.465 / 435.565
PRISM 04 Aug 06:02:25 06:04:41 15° 63° (ENE) 06:07:05 437.425
RS-15 04 Aug 06:04:31 06:16:19 80° 53° (NE) 06:28:34 29.354- 29.394
BEESAT 2 04 Aug 06:08:08 06:09:43 12° 32° (NNE) 06:11:26 435.950
CUTE-I 04 Aug 06:16:09 06:19:39 18° 89° (E) 06:23:20 437.470
CUBESAT XI-V 04 Aug 06:23:13 06:27:54 86° 257° (WSW) 06:32:35 437.345
GONETS M04 04 Aug 06:35:13 06:43:57 84° 279° (W) 06:52:43
STRAND 1 04 Aug 06:37:42 06:42:34 45° 70° (ENE) 06:47:29 437.568
BEESAT 3 04 Aug 06:41:52 06:45:11 24° 42° (NE) 06:48:31 437.485
Cubesat XI-IV 04 Aug 07:00:12 07:05:17 45° 98° (E) 07:10:23 437.490
PRISM 04 Aug 07:35:34 07:39:42 58° 259° (W) 07:43:50 437.425
AO-7 04 Aug 07:38:30 07:44:15 20° 312° (NW) 07:49:41 29.400- 29.500
BEESAT 2 04 Aug 07:44:31 07:48:36 67° 53° (NE) 07:52:37 435.950
PCSat 04 Aug 07:45:53 07:49:31 19° 107° (ESE) 07:53:21 145.827
Cosmos 2499 04 Aug 07:48:36 07:56:03 73° 95° (E) 08:04:11 435.465 / 435.565
CUTE-I 04 Aug 07:55:00 08:00:15 63° 288° (WNW) 08:05:29 437.470
AIST 2 04 Aug 08:03:14 08:06:54 28° 44° (NE) 08:10:33 435.215
GOMX 1 04 Aug 08:13:01 08:16:26 21° 92° (E) 08:20:09 467.674
STRAND 1 04 Aug 08:17:51 08:22:01 24° 268° (W) 08:26:05 437.568
RS-15 04 Aug 08:17:53 08:27:55 32° 254° (WSW) 08:37:49 29.354- 29.394
M-CUBED/EXP-1 PRIME 04 Aug 08:18:38 08:21:26 17° 56° (ENE) 08:24:28 437.505
BEESAT 3 04 Aug 08:19:27 08:23:17 41° 242° (WSW) 08:27:02 437.485
BRITE-PL 04 Aug 08:19:33 08:23:42 37° 97° (E) 08:28:10 437.365/2234.400
CUTE 1.7 + AOD 2 04 Aug 08:28:08 08:29:49 12° 87° (E) 08:31:43 437.475
CANX-2 04 Aug 08:36:12 08:38:58 17° 90° (E) 08:41:52 2200.000
GONETS M04 04 Aug 08:36:20 08:42:26 19° 303° (WNW) 08:48:09
Cubesat XI-IV 04 Aug 08:40:46 08:45:12 27° 296° (WNW) 08:49:32 437.490
AUBIESAT-1 04 Aug 08:43:40 08:47:09 25° 60° (ENE) 08:50:54 437.475
SO-50 04 Aug 08:54:18 08:58:59 58° 120° (ESE) 09:03:49 436.795
CINEMA 3 04 Aug 09:05:21 09:08:51 20° 91° (E) 09:12:33 145.822/145.860
CUBEBUG 2 04 Aug 09:14:08 09:15:32 11° 86° (E) 09:17:13 437.445
DOVE 4 04 Aug 09:21:13 09:25:52 60° 101° (E) 09:30:47 437.250
HO-68 04 Aug 09:23:26 09:30:26 53° 100° (E) 09:37:27 435.675
BEESAT 2 04 Aug 09:24:16 09:26:10 13° 250° (WSW) 09:27:52 435.950
PCSat 04 Aug 09:27:04 09:32:28 66° 304° (NW) 09:37:54 145.827
COMPASS 1 04 Aug 09:32:21 09:36:17 38° 97° (E) 09:40:14 437.405
TIGRISAT 04 Aug 09:36:03 09:39:02 19° 64° (ENE) 09:42:11 435.000
ANTELSAT 04 Aug 09:39:10 09:42:23 21° 65° (ENE) 09:45:46 437.575/2403.000
AIST 2 04 Aug 09:41:41 09:45:32 35° 243° (WSW) 09:49:16 435.215
Cosmos 2499 04 Aug 09:44:04 09:50:14 25° 299° (WNW) 09:56:34 435.465 / 435.565
GOMX 1 04 Aug 09:50:25 09:54:47 45° 288° (WNW) 09:59:26 467.674
M-CUBED/EXP-1 PRIME 04 Aug 09:51:37 09:55:44 59° 255° (WSW) 10:00:13 437.505
SEEDS 04 Aug 09:53:10 09:57:28 83° 102° (ESE) 10:01:43 437.485
ZACube-1 04 Aug 09:54:00 09:57:02 18° 90° (E) 10:00:13 437.345
BRITE-PL 04 Aug 09:58:33 10:02:08 24° 292° (WNW) 10:05:50 437.365/2234.400
POPSAT HIP 1 04 Aug 10:00:49 10:02:40 13° 62° (ENE) 10:04:42 437.405
CUTE 1.7 + AOD 2 04 Aug 10:01:58 10:06:15 65° 286° (WNW) 10:10:28 437.475
YUBILEINY 04 Aug 10:05:36 10:12:35 26° 62° (ENE) 10:19:50 435.215
QB50P2 04 Aug 10:08:39 10:11:12 16° 64° (ENE) 10:13:54 145.880/145.840
AAUSAT CUBESAT 2 04 Aug 10:10:25 10:14:39 86° 103° (ESE) 10:18:49 437.432
CANX-2 04 Aug 10:11:02 10:15:12 46° 288° (WNW) 10:19:17 2200.000
HUMSAT D 04 Aug 10:12:53 10:13:33 10° 86° (E) 10:14:29 437.325/437.525
FUNcube-1 04 Aug 10:13:26 10:17:17 27° 94° (E) 10:21:12 145.935
AUBIESAT-1 04 Aug 10:17:48 10:21:41 36° 259° (W) 10:25:50 437.475
Oscar 11 04 Aug 10:19:43 10:23:57 48° 99° (E) 10:28:10 145.826/435.025
UWE-3 04 Aug 10:25:03 10:29:32 47° 98° (E) 10:34:03 435.000/436.395/437.385
DUCHIFAT 1 04 Aug 10:28:08 10:31:25 23° 67° (ENE) 10:34:47 145.980
UNISAT 6 04 Aug 10:29:14 10:33:34 64° 74° (ENE) 10:38:03 437.425
O/OREOS (USA 219) 04 Aug 10:31:54 10:36:20 46° 61° (ENE) 10:40:46 437.305
NANOSAT C BR1 04 Aug 10:33:42 10:37:14 27° 68° (ENE) 10:40:49 145.865
QB50P1 04 Aug 10:33:59 10:37:31 28° 68° (ENE) 10:41:09 145.935-145.965
SO-50 04 Aug 10:35:51 10:39:55 25° 321° (NW) 10:43:59 436.795
CINEMA 3 04 Aug 10:41:43 10:46:17 48° 288° (WNW) 10:50:59 145.822/145.860
Cosmos 2491 04 Aug 10:45:40 10:51:01 19° 78° (ENE) 10:56:48 435.465 / 435.565
CUBEBUG 2 04 Aug 10:48:10 10:52:51 82° 284° (WNW) 10:57:36 437.445
AISAT 04 Aug 10:48:49 10:49:04 10° 86° (E) 10:49:37 437.250
DX 1 04 Aug 10:55:57 10:59:08 20° 93° (E) 11:02:24 434.975-435.025
DOVE 4 04 Aug 11:00:09 11:03:17 17° 295° (WNW) 11:06:21 437.250
DELFI C3 04 Aug 11:06:06 11:10:11 76° 285° (WNW) 11:14:11 145.870
COMPASS 1 04 Aug 11:08:31 11:11:44 21° 294° (WNW) 11:14:51 437.405
TIGRISAT 04 Aug 11:11:11 11:15:26 48° 261° (W) 11:19:48 435.000
HO-68 04 Aug 11:11:36 11:17:57 34° 299° (WNW) 11:24:11 435.675
PCSat 04 Aug 11:13:48 11:17:01 15° 326° (NNW) 11:20:05 145.827
ANTELSAT 04 Aug 11:14:41 11:18:53 43° 262° (W) 11:23:12 437.575/2403.000
POLYITAN 1 04 Aug 11:18:17 11:22:29 85° 76° (ENE) 11:26:44 437.675
BUGSAT 1 04 Aug 11:18:31 11:22:25 50° 73° (ENE) 11:26:20 437.445
AIST 1 04 Aug 11:23:44 11:27:23 27° 90° (E) 11:31:05
VELOX 1 04 Aug 11:23:55 11:27:29 24° 94° (E) 11:31:06 145.980
ZACube-1 04 Aug 11:29:16 11:33:42 50° 287° (WNW) 11:38:09 437.345
SEEDS 04 Aug 11:31:24 11:32:40 11° 299° (WNW) 11:33:43 437.485
POPSAT HIP 1 04 Aug 11:33:52 11:38:03 67° 259° (WSW) 11:42:15 437.405
QB50P2 04 Aug 11:42:38 11:46:44 51° 260° (W) 11:50:52 145.880/145.840
HUMSAT D 04 Aug 11:45:34 11:49:55 77° 284° (WNW) 11:54:14 437.325/437.525
AAUSAT CUBESAT 2 04 Aug 11:48:53 11:49:38 10° 299° (WNW) 11:50:10 437.432
FUNcube-1 04 Aug 11:49:31 11:53:37 33° 291° (WNW) 11:57:43 145.935
ESTCUBE 1 04 Aug 11:49:59 11:54:01 32° 96° (E) 11:58:04 437.505/2401.250
Oscar 11 04 Aug 11:56:46 11:59:48 18° 295° (WNW) 12:02:43 145.826/435.025
UKube-1 04 Aug 11:57:18 12:01:38 82° 102° (ESE) 12:05:58 .
YUBILEINY 04 Aug 12:01:39 12:10:29 76° 265° (W) 12:19:16 435.215
UWE-3 04 Aug 12:02:17 12:05:46 21° 295° (WNW) 12:09:10 435.000/436.395/437.385
DUCHIFAT 1 04 Aug 12:03:17 12:07:05 33° 264° (W) 12:10:53 145.980
UNISAT 6 04 Aug 12:08:41 12:10:54 13° 273° (W) 12:12:56 437.425
NANOSAT C BR1 04 Aug 12:09:22 12:13:00 28° 265° (W) 12:16:37 145.865
QB50P1 04 Aug 12:09:44 12:13:21 27° 265° (W) 12:16:57 145.935-145.965
50 SAT 04 Aug 12:09:54 12:13:54 86° 285° (WNW) 12:17:52 437.505
O/OREOS (USA 219) 04 Aug 12:12:06 12:15:27 20° 258° (WSW) 12:18:41 437.305
AISAT 04 Aug 12:21:53 12:26:19 81° 285° (WNW) 12:30:45 437.250
CUBEBUG 1 04 Aug 12:24:20 12:28:38 62° 101° (E) 12:32:55 437.445
CUBEBUG 2 04 Aug 12:27:37 12:28:52 11° 300° (WNW) 12:29:54 437.445
DX 1 04 Aug 12:31:28 12:35:33 40° 290° (WNW) 12:39:36 434.975-435.025
Oscar 19 04 Aug 12:34:59 12:39:08 26° 65° (ENE) 12:43:25 437.125/150
Cosmos 2504 04 Aug 12:35:31 12:42:31 29° 65° (ENE) 12:49:52 435.465 / 435.565
Cosmos 2491 04 Aug 12:38:00 12:46:47 88° 95° (E) 12:55:35 435.465 / 435.565
TISAT 1 04 Aug 12:43:31 12:46:28 19° 92° (E) 12:49:31 437.305
SPROUT 04 Aug 12:45:59 12:49:52 32° 96° (E) 12:53:46 437.525
BUGSAT 1 04 Aug 12:56:03 12:58:15 14° 270° (W) 13:00:17 437.445
VELOX 1 04 Aug 13:00:06 13:04:07 34° 291° (WNW) 13:08:05 145.980
AIST 1 04 Aug 13:01:17 13:05:01 27° 288° (WNW) 13:08:41
AO-7 04 Aug 13:08:07 13:09:49 11° 38° (NE) 13:11:59 29.400- 29.500
ESTCUBE 1 04 Aug 13:27:00 13:30:48 27° 293° (WNW) 13:34:31 437.505/2401.250
BEESAT 04 Aug 13:30:32 13:31:16 10° 86° (E) 13:32:18 436.000
UKube-1 04 Aug 13:35:39 13:37:12 11° 300° (WNW) 13:38:32 .
CUSAT 1 04 Aug 13:36:29 13:38:34 13° 68° (ENE) 13:41:08 437.405
SWISSCUBE 04 Aug 13:49:33 13:52:50 19° 91° (E) 13:56:14 437.505
JAS-2 04 Aug 14:00:52 14:05:59 26° 58° (ENE) 14:11:44 435.910
YUBILEINY 04 Aug 14:01:05 14:05:57 15° 284° (WNW) 14:10:16 435.215
CUBEBUG 1 04 Aug 14:02:06 14:04:33 15° 297° (WNW) 14:06:50 437.445
Gurwin Techsat 1B 04 Aug 14:03:23 14:08:29 51° 71° (ENE) 14:13:40 435.225
ITAMSAT 1 04 Aug 14:03:28 14:08:24 46° 70° (ENE) 14:13:24 435.822/435.867
ITUPSAT 1 04 Aug 14:11:53 14:15:57 28° 94° (E) 14:20:03 437.325
Oscar 19 04 Aug 14:13:27 14:18:19 42° 262° (W) 14:23:12 437.125/150
TISAT 1 04 Aug 14:18:27 14:22:26 41° 289° (WNW) 14:26:24 437.305
SPROUT 04 Aug 14:22:17 14:25:50 25° 293° (WNW) 14:29:18 437.525
Cosmos 2504 04 Aug 14:27:05 14:35:30 70° 266° (W) 14:44:02 435.465 / 435.565
Cosmos 2491 04 Aug 14:38:31 14:45:05 22° 301° (WNW) 14:51:18 435.465 / 435.565
GONETS M04 04 Aug 14:50:18 14:52:27 11° 48° (NE) 14:55:14
AO-7 04 Aug 14:52:55 15:00:31 42° 60° (ENE) 15:08:14 29.400- 29.500
KKS-1 04 Aug 14:56:29 14:58:36 14° 88° (E) 15:00:58 437.445
HORYU 2 04 Aug 15:02:24 15:05:49 23° 65° (ENE) 15:09:21 437.375
BEESAT 04 Aug 15:05:04 15:09:53 88° 283° (WNW) 15:14:39 436.000
CUSAT 1 04 Aug 15:16:50 15:21:16 75° 261° (W) 15:27:13 437.405
DANDE 04 Aug 15:24:35 15:28:35 85° 83° (E) 15:34:00 436.750
SWISSCUBE 04 Aug 15:26:23 15:31:02 51° 289° (WNW) 15:35:37 437.505
ITAMSAT 1 04 Aug 15:43:55 15:48:10 24° 267° (W) 15:52:19 435.822/435.867
JAS-2 04 Aug 15:44:08 15:50:24 68° 260° (W) 15:57:33 435.910
Gurwin Techsat 1B 04 Aug 15:44:39 15:48:49 22° 269° (W) 15:52:52 435.225
SO-50 04 Aug 15:44:40 15:47:58 18° 33° (NNE) 15:51:20 436.795
ITUPSAT 1 04 Aug 15:49:33 15:53:54 35° 292° (WNW) 15:58:11 437.325
STARS 04 Aug 15:54:50 15:58:50 33° 96° (E) 16:02:51 437.465
MOZHAYETS 4 04 Aug 16:15:21 16:17:07 12° 86° (E) 16:19:08
Cosmos 2504 04 Aug 16:22:11 16:26:24 14° 284° (WNW) 16:30:05 435.465 / 435.565
PCSat 04 Aug 16:30:32 16:35:01 26° 43° (NE) 16:39:35 145.827
KKS-1 04 Aug 16:31:18 16:35:45 63° 286° (WNW) 16:40:10 437.445
HORYU 2 04 Aug 16:38:03 16:42:15 39° 263° (W) 16:46:28 437.375
GONETS M04 04 Aug 16:43:32 16:52:01 54° 74° (ENE) 17:00:33
AO-7 04 Aug 16:45:07 16:53:13 51° 260° (W) 17:01:18 29.400- 29.500
BEESAT 04 Aug 16:45:11 16:47:03 12° 301° (WNW) 16:48:41 436.000
Cubesat XI-IV 04 Aug 16:47:16 16:49:43 14° 58° (ENE) 16:52:24 437.490
SO-50 04 Aug 17:24:21 17:29:21 80° 54° (NE) 17:34:14 436.795
VERMONT LUNAR 04 Aug 17:24:24 17:26:57 23° 161° (SSE) 17:29:32 437.305
STARS 04 Aug 17:31:27 17:35:10 26° 293° (WNW) 17:38:48 437.465
JAS-2 04 Aug 17:35:37 17:37:17 11° 283° (WNW) 17:38:28 435.910
Cosmos 2499 04 Aug 17:37:21 17:44:56 32° 66° (ENE) 17:52:46 435.465 / 435.565
CUTE-I 04 Aug 17:39:08 17:43:56 36° 67° (ENE) 17:48:48 437.470
